AO-07 1 07530U 74089B 23320.46554446 -.00000041 00000-0 31425-4 0 9996 2 07530 101.9639 308.2550 0012317 131.5846 23.3257 12.53669229242253 UO-11 1 14781U 84021B 23320.38552068 .00001671 00000-0 19889-3 0 9996 2 14781 97.6784 291.6417 0009745 65.9504 294.2731 14.85600396116736 AO-16 1 20439U 90005D 23319.76334297 .00000237 00000-0 10326-3 0 9998 2 20439 98.8948 313.9796 0011710 117.2382 57.6139 14.33212142766618 LO-19 1 20442U 90005G 23319.51524819 .00000250 00000-0 10726-3 0 9995 2 20442 98.8631 299.4107 0012805 94.5824 265.6823 14.33367173767021 AO-27 1 22825U 93061C 23320.07606271 .00000162 00000-0 80058-4 0 9991 2 22825 98.8220 5.2767 0008182 352.0261 8.0790 14.30379891572008 IO-26 1 22826U 93061D 23320.11071497 .00000186 00000-0 88393-4 0 9999 2 22826 98.8166 5.1733 0008443 336.4226 23.6568 14.30749205572283 FO-29 1 24278U 96046B 23320.36053488 .00000068 00000-0 10412-3 0 9990 2 24278 98.5529 278.3200 0350595 22.4311 339.1742 13.53161791345519 NOAA-15 1 25338U 98030A 23320.79736886 .00000204 00000-0 10265-3 0 9998 2 25338 98.5923 347.1572 0009604 223.7632 136.2788 14.26434517327017 GO-32 1 25397U 98043D 23320.35249359 .00000131 00000-0 77127-4 0 9993 2 25397 98.8914 279.2719 0002295 70.7331 289.4095 14.23942633316984 ISS 1 25544U 98067A 23320.88649159 .00012678 00000-0 23480-3 0 9994 2 25544 51.6426 292.1954 0000866 304.7662 142.8998 15.49377279425473 NO-44 1 26931U 01043C 23320.00862553 .00000214 00000-0 11278-3 0 9997 2 26931 67.0495 164.7780 0006064 256.9040 103.1385 14.31041682155304 SO-50 1 27607U 02058C 23319.57001316 .00001485 00000-0 22086-3 0 9997 2 27607 64.5529 160.6397 0051814 190.9947 169.0029 14.77907329124806 CO-55 1 27844U 03031E 23320.00122641 .00000477 00000-0 23114-3 0 9990 2 27844 98.6794 325.0663 0010601 50.1786 310.0324 14.22961088 57321 CO-57 1 27848U 03031J 23320.48778260 .00000362 00000-0 18212-3 0 9996 2 27848 98.6829 325.8991 0010656 63.0748 297.1518 14.22447009 57150 RS-22 1 27939U 03042A 23320.82118774 .00001361 00000-0 24077-3 0 9991 2 27939 98.2639 109.1859 0012634 19.6648 116.7688 14.68976089 76943 NOAA-18 1 28654U 05018A 23320.73432254 .00000253 00000-0 15905-3 0 9992 2 28654 98.8971 34.2947 0013400 310.3450 49.6551 14.13056298953110 CO-58 1 28895U 05043F 23320.34667607 .00001857 00000-0 34431-3 0 9992 2 28895 98.1747 91.5010 0015259 315.2504 44.7468 14.66400110963103 CO-65 1 32785U 08021C 23320.80576304 .00003747 00000-0 35758-3 0 9991 2 32785 97.7281 283.8042 0010656 325.7303 34.3229 14.93877562843661 AAUSAT2 1 32788U 08021F 23320.73073958 .00011282 00000-0 73275-3 0 9992 2 32788 97.5777 297.2925 0006646 167.7965 192.3425 15.08182788846160 CO-66 1 32791U 08021J 23319.45782127 .00007324 00000-0 60587-3 0 9992 2 32791 97.6745 287.8980 0008601 259.4480 100.5774 14.99171282844386 RS-30 1 32953U 08025A 23320.79727430 .00000037 00000-0 19796-3 0 9991 2 32953 82.5055 222.1701 0018489 210.1338 149.8679 12.43132041702613 PRISM 1 33493U 09002B 23320.50568874 .00010430 00000-0 63506-3 0 9997 2 33493 98.2344 346.0769 0013208 253.2061 106.7718 15.10548242806705 NOAA-19 1 33591U 09005A 23320.79831129 .00000223 00000-0 14423-3 0 9999 2 33591 99.0804 9.0277 0014094 169.9256 190.2200 14.12866546761498 SRMSAT 1 37841U 11058D 23320.42264205 .00000501 00000-0 12964-3 0 9994 2 37841 19.9735 9.5379 0011614 265.0510 204.9842 14.10983702624336 HRBE 1 37855U 11061F 23319.93210899 .00034842 00000-0 81935-3 0 9996 2 37855 101.6992 8.6164 0096736 292.1208 66.9773 15.37103681659786 RS-40 1 38735U 12041C 23320.48989319 .00000012 00000-0 12895-4 0 9997 2 38735 82.4729 303.1217 0016849 328.5869 31.4202 12.42597789512639 ZACUBE-1 1 39417U 13066B 23320.38155134 .00003343 00000-0 37416-3 0 9997 2 39417 97.7074 277.0079 0054323 144.7056 215.7776 14.86477664539797 Delfi-N3xt 1 39428U 13066N 23320.35690198 .00005497 00000-0 75803-3 0 9994 2 39428 97.8354 239.9641 0109027 60.1092 301.0895 14.74502434534546 GOMX-1 1 39430U 13066Q 23320.78840516 .00001998 00000-0 34747-3 0 9999 2 39430 97.7571 202.9350 0142418 209.7643 149.5404 14.62729117531836 LO-74 1 39440U 13066AA 23320.35299193 .00003499 00000-0 44040-3 0 9997 2 39440 97.7901 264.3805 0071470 251.6539 107.6891 14.80883973536662 AO-73 1 39444U 13066AE 23320.35569210 .00004322 00000-0 45854-3 0 9991 2 39444 97.6930 279.6962 0052688 128.6149 231.9803 14.88547789538262 SPROUT 1 39770U 14029E 23320.36524148 .00030594 00000-0 17902-2 0 9997 2 39770 98.0018 93.2005 0005251 172.4127 187.7182 15.11776644515063 DTUSAT-2 1 40030U 14033W 23320.32846257 .00005710 00000-0 52773-3 0 9995 2 40030 97.9837 263.0908 0011634 137.6636 222.5484 14.94938209510717 EO-80 1 40032U 14033Y 23320.36989408 .00004565 00000-0 42290-3 0 9997 2 40032 97.9826 263.1487 0011202 139.9666 220.2381 14.94960871511216 HODOYOSHI-1 1 40299U 14070B 23320.77680737 .00013834 00000-0 36799-3 0 9997 2 40299 97.1739 19.7330 0010984 90.9025 269.3479 15.38273035502220 GRIFEX 1 40379U 15003D 23320.40018859 .00088443 00000-0 98341-3 0 9992 2 40379 99.0861 296.0889 0057892 99.1118 261.6690 15.60481263486947 XW-2C 1 40906U 15049H 23320.81088537 .00013743 00000-0 45480-3 0 9990 2 40906 97.4919 328.9405 0010163 356.8754 3.2422 15.31399527451716 XW-2D 1 40907U 15049J 23320.78219672 .00018332 00000-0 54899-3 0 9996 2 40907 97.4888 329.9668 0008609 350.5133 9.5946 15.34539229451839 LILACSAT-2 1 40908U 15049K 23320.81000008 .00006298 00000-0 27781-3 0 9990 2 40908 97.5280 323.6986 0014194 25.8598 334.3345 15.22052517450999 XW-2E 1 40909U 15049L 23320.76935201 .00056629 00000-0 89596-3 0 9992 2 40909 97.4400 338.4550 0003423 300.9582 59.1335 15.53264729452691 XW-2F 1 40910U 15049M 23320.77655737 .00055349 00000-0 90588-3 0 9999 2 40910 97.4508 337.7219 0004292 304.2698 55.8147 15.52322497452427 XW-2B 1 40911U 15049N 23320.80472570 .00017667 00000-0 53474-3 0 9990 2 40911 97.4865 330.3195 0008704 351.7402 8.3696 15.34209662451719 DCBB 1 40912U 15049P 23320.77071425 .00114150 00000-0 10749-2 0 9993 2 40912 97.3971 343.4157 0003648 201.5233 158.5874 15.66723880453284 IO-86 1 40931U 15052B 23317.35474638 .00001462 00000-0 11169-3 0 9990 2 40931 5.9993 101.5318 0013595 249.5202 110.3466 14.77471474439339 ChubuSat-2 1 41338U 16012B 23320.45301814 .00004505 00000-0 29910-3 0 9993 2 41338 31.0037 323.3227 0012316 255.2957 104.6315 15.05521300425334 ChubuSat-3 1 41339U 16012C 23320.40230625 .00003993 00000-0 26652-3 0 9990 2 41339 31.0101 321.1374 0012225 261.3638 98.5614 15.05234861425223 Horyu-4 1 41340U 16012D 23320.24700884 .00008578 00000-0 49789-3 0 9993 2 41340 31.0043 283.3935 0011003 324.0502 35.9396 15.10766129425711 e-st@r-II 1 41459U 16025D 23320.83333727 .00051028 00000-0 10140-2 0 9997 2 41459 98.1611 178.8246 0079610 284.0453 75.1952 15.43359709416327 Lapan A3 1 41603U 16040E 23320.82549813 .00002499 00000-0 10742-3 0 9996 2 41603 97.1560 339.3482 0013772 131.5290 228.7131 15.23456746410728 Pratham 1 41783U 16059A 23320.76678355 .00000812 00000-0 16152-3 0 9990 2 41783 97.8555 345.0215 0032296 339.6927 20.2989 14.64295965381301 CAS-2T 1 41847U 16066G 23320.20473842 .00001534 00000-0 23286-3 0 9990 2 41847 98.4880 27.9634 0358534 101.0541 263.1183 14.40344257368683 CAS-4B 1 42759U 17034B 23320.55170402 .00009637 00000-0 43696-3 0 9992 2 42759 43.0160 346.6988 0010669 8.2571 351.8453 15.20937620354806 CAS-4A 1 42761U 17034D 23320.76321049 .00009441 00000-0 42755-3 0 9991 2 42761 43.0154 344.0163 0011299 10.4176 349.6906 15.20993305354849 NIUSat 1 42766U 17036B 23320.06400606 .00052230 00000-0 87193-3 0 9997 2 42766 97.1371 348.9133 0004759 264.3183 95.7528 15.51777919356055 Aalto 1 1 42775U 17036L 23320.29510090 .00024572 00000-0 55109-3 0 9991 2 42775 97.1352 346.5436 0005934 275.8269 84.2303 15.43378106355916 URSA MAIOR 1 42776U 17036M 23320.55714575 .00033113 00000-0 65632-3 0 9998 2 42776 97.1338 348.7288 0005805 270.4482 89.6103 15.46961091356063 Max Valier Sat 1 42778U 17036P 23320.10333907 .00034173 00000-0 63932-3 0 9995 2 42778 97.1340 352.1058 0004245 262.3262 97.7507 15.48633925356157 Pegasus 1 42784U 17036V 23319.82129101 .00157077 00000-0 11778-2 0 9997 2 42784 97.1217 357.2231 0002726 206.4630 153.6495 15.72148679356563 VENTA 1 1 42791U 17036AC 23320.05579518 .00158863 00000-0 11506-2 0 9996 2 42791 97.1199 358.7455 0002444 210.5491 149.5632 15.72966373356669 D-SAT 1 42794U 17036AF 23320.39004110 .00004425 00000-0 33754-3 0 9991 2 42794 97.4795 305.6376 0114131 148.2572 212.5598 14.97407056348694 TechnoSat 1 42829U 17042E 23320.75320733 .00003081 00000-0 28846-3 0 9992 2 42829 97.3807 149.1347 0014726 74.3757 285.9088 14.94664280345278 AO-91 1 43017U 17073E 23320.23382557 .00008194 00000-0 55191-3 0 9994 2 43017 97.6046 198.6141 0223029 286.3980 71.2826 14.88835118323789 AO-92 1 43137U 18004AC 23320.19377351 .00098610 00000-0 94110-3 0 9999 2 43137 97.3115 42.6252 0003662 282.8762 77.2089 15.66440081325917 TianYi 2 1 43155U 18008A 23320.79915863 .00024847 00000-0 76045-3 0 9993 2 43155 97.2761 10.2309 0012086 123.3576 236.8825 15.33748506321979 Zhou Enlai 1 43156U 18008B 23320.77661576 .00028656 00000-0 83236-3 0 9993 2 43156 97.2808 10.6451 0009606 124.2769 235.9386 15.35398103321914 TianYi 6 1 43158U 18008D 23320.80302819 .00020107 00000-0 69947-3 0 9997 2 43158 97.2852 6.7040 0010543 128.4241 231.7947 15.29685668321698 S-Net D 1 43186U 18014G 23320.30150153 .00003463 00000-0 26924-3 0 9996 2 43186 97.6012 221.1327 0012840 23.6860 336.4953 15.01876456316373 S-Net B 1 43187U 18014H 23320.70274521 .00003233 00000-0 25163-3 0 9996 2 43187 97.6026 221.4597 0013361 19.0484 341.1238 15.01880113316432 S-Net A 1 43188U 18014J 23320.70257803 .00003236 00000-0 25181-3 0 9994 2 43188 97.6028 221.5565 0013250 19.2643 340.9080 15.01883658316436 S-Net C 1 43189U 18014K 23320.30553827 .00003436 00000-0 26700-3 0 9996 2 43189 97.6061 221.0701 0014471 14.6053 345.5587 15.01887632314922 CubeBel-1 1 43666U 18083E 23320.77457225 .00068371 00000-0 10276-2 0 9997 2 43666 97.3598 354.5873 0004351 284.3969 75.6801 15.54631052280758 Changshagaoxin 1 43669U 18083H 23320.79069257 .00041603 00000-0 83876-3 0 9992 2 43669 97.3627 348.0692 0003459 305.0131 55.0793 15.46430888280422 Ten-Koh 1 43677U 18084G 23320.36718206 .00002765 00000-0 26377-3 0 9999 2 43677 98.0354 103.3635 0014957 10.5173 349.6356 14.94120115274773 PO-101 1 43678U 18084H 23320.78651701 .00001527 00000-0 14840-3 0 9999 2 43678 98.0445 108.1134 0009904 24.2745 335.8939 14.94118932275044 QO-100 1 43700U 18090A 23320.50049146 .00000163 00000-0 00000-0 0 9991 2 43700 0.0142 283.2286 0001422 345.1641 352.9695 1.00273483 18216 MinXSS-2 1 43758U 18099A 23320.60950319 .00005924 00000-0 42989-3 0 9992 2 43758 97.5844 21.7239 0018015 329.9237 30.0953 15.04151388270634 AO-95 1 43770U 18099N 23320.10741031 .00006354 00000-0 48791-3 0 9995 2 43770 97.5799 17.7813 0014605 10.5901 349.5628 15.02022689270391 RANGE-B 1 43772U 18099Q 23320.11070391 .00008712 00000-0 62796-3 0 9993 2 43772 97.5565 20.8532 0004546 286.2428 73.8298 15.04381565270489 RANGE-A 1 43773U 18099R 23320.11996402 .00004501 00000-0 36672-3 0 9990 2 43773 97.5488 15.1450 0012525 340.5906 19.4839 14.99924899270327 MOVE-II 1 43780U 18099Y 23320.17775594 .00011376 00000-0 74697-3 0 9998 2 43780 97.5532 21.2167 0007893 4.2155 355.9138 15.07771138270607 SNUSat 2 1 43782U 18099AA 23320.16362968 .00004679 00000-0 36486-3 0 9998 2 43782 97.5508 18.0729 0014645 305.3339 54.6516 15.01568244270421 SnugLite 1 43784U 18099AC 23320.11700641 .00007006 00000-0 53471-3 0 9999 2 43784 97.5269 17.5687 0005174 322.1930 37.8931 15.02288349270469 ITASat 1 1 43786U 18099AE 23320.16297028 .00005040 00000-0 39592-3 0 9990 2 43786 97.5496 18.5845 0018830 352.9611 7.1346 15.01193350270433 EAGLET 1 1 43790U 18099AJ 23320.12856766 .00004448 00000-0 35703-3 0 9992 2 43790 97.5635 18.9305 0015785 343.4543 16.6163 15.00474135270156 ESEO 1 43792U 18099AL 23320.12630319 .00002197 00000-0 18872-3 0 9995 2 43792 97.5520 16.8898 0011954 343.0899 16.9923 14.98394047270133 CSIM 1 43793U 18099AM 23320.17008877 .00010057 00000-0 65605-3 0 9999 2 43793 97.5599 22.7233 0013740 333.9204 26.1331 15.07993414270457 JO-97 1 43803U 18099AX 23320.15620643 .00005420 00000-0 40549-3 0 9998 2 43803 97.5537 18.9375 0009228 321.8211 38.2359 15.03122254270507 Suomi 100 1 43804U 18099AY 23320.12452210 .00006950 00000-0 52384-3 0 9998 2 43804 97.5579 18.6950 0017074 312.2490 47.7286 15.02661309270491 CHOMPTT 1 43855U 18104G 23320.75906875 .00045545 00000-0 74848-3 0 9993 2 43855 85.0259 61.5429 0008908 103.2416 256.9836 15.52159642274131 ISAT 1 43879U 18111D 23320.29401729 .00008334 00000-0 58781-3 0 9997 2 43879 97.6303 222.7544 0015050 14.3704 345.7947 15.05132885267199 UWE-4 1 43880U 18111E 23320.71850679 .00006351 00000-0 45353-3 0 9996 2 43880 97.6227 223.6454 0019072 22.3967 337.8088 15.04709515265289 Sparrow 1 43881U 18111F 23320.26271467 .00007625 00000-0 53267-3 0 9997 2 43881 97.6387 224.2701 0013095 56.1221 304.1250 15.05543162267247 Lume 1 1 43908U 18111AJ 23320.21649839 .00090147 00000-0 90718-3 0 9997 2 43908 97.1072 202.5443 0009489 24.4811 335.6898 15.65088391272999 AISTechSat 3 1 44103U 19018AB 23320.80435806 .00046497 00000-0 71426-3 0 9998 2 44103 97.2284 19.1760 0007227 80.3454 279.8616 15.54103715258097 AISat 1 1 44104U 19018AC 23320.73676369 .00032462 00000-0 44792-3 0 9995 2 44104 97.3719 55.7501 0032390 59.6335 300.8115 15.56495328259363 Prox-1 1 44339U 19036A 23320.59585368 .00006584 00000-0 12428-2 0 9993 2 44339 23.9988 153.8814 0009255 146.4336 213.6744 14.61993310233903 Move-IIb 1 44398U 19038N 23319.79115340 .00423757 00000-0 20123-2 0 9995 2 44398 97.6645 313.0009 0012854 104.4068 255.8627 15.81730181242206 SONATE 1 44400U 19038Q 23320.38648130 .00011378 00000-0 45024-3 0 9994 2 44400 97.7003 301.7228 0020500 134.6796 225.6116 15.25431201241404 BeeSat 9 1 44412U 19038AC 23320.73287123 .00036939 00000-0 89043-3 0 9996 2 44412 97.6853 307.5695 0015672 112.6743 247.6161 15.41022144241553 JAISAT-1 1 44419U 19038F 23320.39985590 .00036714 00000-0 88342-3 0 9990 2 44419 97.6838 308.3429 0015280 110.8498 249.4385 15.41083522241880 Taurus 1 1 44530U 19059C 23320.76329218 .00004280 00000-0 10723-2 0 9997 2 44530 98.5641 71.1629 0011794 348.0003 12.0908 14.51886759220768 Duchifat 3 1 44854U 19089C 23320.19527296 .00009808 00000-0 60203-3 0 9992 2 44854 36.9606 260.7725 0006242 150.6963 209.4133 15.09609703215853 OPS-SAT 1 44878U 19092F 23320.48619041 .00039522 00000-0 85281-3 0 9993 2 44878 97.4636 152.1438 0006968 311.0177 49.0468 15.44426232217218 TO-108 1 44881U 19093C 23320.74346389 .00001103 00000-0 14217-3 0 9994 2 44881 97.8503 36.5419 0013423 303.4279 56.5650 14.82983844211404 FloripaSat 1 1 44885U 19093G 23320.74632111 .00003545 00000-0 39776-3 0 9998 2 44885 97.8588 40.2854 0012188 301.5104 58.4921 14.87374000211617 RS-44 1 44909U 19096E 23320.28576446 .00000028 00000-0 65643-4 0 9991 2 44909 82.5219 246.8648 0217076 191.0701 168.5584 12.79723796181612 BY70-2 1 45857U 20042B 23320.77692025 .00025438 00000-0 20902-2 0 9992 2 45857 97.9154 41.9468 0008082 215.1576 144.9114 14.99120825182324 UPMSat 2 1 46276U 20061E 23320.18772677 .00010197 00000-0 38810-3 0 9990 2 46276 97.3287 24.7715 0002258 123.2281 236.9175 15.26934405177451 AmicalSat 1 46287U 20061R 23320.11788282 .00017297 00000-0 69049-3 0 9990 2 46287 97.3819 24.0950 0000644 274.6135 85.5029 15.25221354176821 SALSAT 1 46495U 20068K 23320.34799970 .00006203 00000-0 38871-3 0 9993 2 46495 97.7892 270.2791 0013922 329.8519 30.1907 15.09649028172019 CAPE 3 1 47309U 21002A 23320.20524992 .00079502 00000-0 97068-3 0 9997 2 47309 60.6681 187.2996 0021074 35.3333 324.9163 15.59668136157829 AO-109 1 47311U 21002C 23320.22473267 .00044554 00000-0 73511-3 0 9996 2 47311 60.6760 189.5207 0021780 34.4901 325.7608 15.51721453157765 ExoCube 2 1 47319U 21002L 23320.06500174 .00046253 00000-0 80115-3 0 9990 2 47319 60.6722 193.1618 0022094 33.5949 326.6546 15.50334601157652 UVSQ-SAT 1 47438U 21006AB 23320.11344392 .00022908 00000-0 76979-3 0 9994 2 47438 97.3630 15.4645 0007156 262.3290 97.7139 15.30815690155830 YUSAT 1 1 47439U 21006AC 23320.12484818 .00031765 00000-0 91377-3 0 9994 2 47439 97.3636 17.0316 0006530 255.3287 104.7233 15.35707489155939 SOMP 2b 1 47445U 21006AJ 23320.12278997 .00020979 00000-0 72919-3 0 9996 2 47445 97.3596 14.4581 0007107 269.5287 90.5139 15.29735520155795 IDEASSat 1 47458U 21006AX 23320.57695490 .00016059 00000-0 57817-3 0 9994 2 47458 97.3695 15.6994 0006535 267.1050 92.9442 15.28644935155832 CubeSX-Sirius-HSE 1 47951U 21022V 23320.77104019 .00010066 00000-0 50551-3 0 9994 2 47951 97.4789 215.8409 0017469 158.2685 201.9293 15.17347676146131 CubeSX-HSE 1 47952U 21022W 23320.80321369 .00011164 00000-0 55898-3 0 9997 2 47952 97.4785 215.9345 0017351 157.9426 202.2558 15.17426760146148 KSU-Cubesat 1 47954U 21022Y 23320.28612854 .00012312 00000-0 59254-3 0 9999 2 47954 97.4795 216.0591 0016644 156.6020 203.5975 15.18793800145820 GRBAlpha 1 47959U 21022AD 23320.78124880 .00011046 00000-0 55171-3 0 9993 2 47959 97.4792 216.0224 0017201 157.8432 202.3549 15.17518276144964 Orbicraft-Zorkiy 1 47960U 21022AE 23320.78559604 .00012641 00000-0 61177-3 0 9996 2 47960 97.4828 216.7140 0016835 155.8308 204.3720 15.18590433145681 STECCO 1 47962U 21022AG 23320.75481259 .00026080 00000-0 93352-3 0 9997 2 47962 97.4798 220.7553 0012072 130.5867 229.6425 15.28685570145276 MO-110 1 47964U 21022AJ 23320.17930302 .00028463 00000-0 97748-3 0 9993 2 47964 97.4818 221.0407 0013922 128.8303 231.4182 15.29996931145237 FEES 1 48082U 21022AL 23320.23173504 .00093961 00000-0 18041-2 0 9998 2 48082 97.4766 224.6786 0011565 104.5181 255.7352 15.47557156145180 TUBIN 1 48900U 21059X 23320.78726671 .00010047 00000-0 42973-3 0 9992 2 48900 97.6206 95.9089 0009162 109.9602 250.2621 15.22997675132375 IT-SPINS 1 49017U 21013G 23320.77852516 .00077413 00000-0 93865-3 0 9995 2 49017 51.5864 42.8197 0001184 278.3301 81.7557 15.59935394133363 LEDSAT 1 49069U 21073D 23320.62387128 .00009474 00000-0 47093-3 0 9998 2 49069 97.4659 29.1117 0021261 313.7526 46.1947 15.17662362123994 CUTE 1 49263U 21088D 23320.14984501 .00011019 00000-0 63727-3 0 9995 2 49263 97.5266 23.5250 0017848 101.5079 258.8156 15.12303323117220 TeikyoSat 4 1 49396U 21102B 23320.76395451 .00002295 00000-0 17464-3 0 9990 2 49396 97.4905 7.9363 0012984 284.2272 75.7512 15.03012103110685 Z-Sat 1 49399U 21102E 23320.76335291 .00003927 00000-0 27146-3 0 9990 2 49399 97.4637 9.1327 0020033 268.9000 90.9932 15.06137249110841 KOSEN 1 1 49402U 21102H 23320.77285625 .00004460 00000-0 29013-3 0 9999 2 49402 97.4566 9.9572 0018745 254.6190 105.2968 15.08336205110941 HO-113 1 50466U 21131B 23320.79002655 .00000631 00000-0 21781-3 0 9995 2 50466 98.5438 41.8155 0004950 54.8902 305.2749 14.39188062 99303 Tevel-3 1 50988U 22002E 23320.75326784 .00027284 00000-0 83155-3 0 9996 2 50988 97.4142 27.3419 0006767 60.4511 299.7405 15.33913580102072 Tevel-8 1 50989U 22002F 23320.77935649 .00026491 00000-0 80964-3 0 9999 2 50989 97.4160 27.4435 0006764 59.7323 300.4588 15.33831289102078 Tevel-5 1 50998U 22002Q 23320.72886620 .00029465 00000-0 86146-3 0 9990 2 50998 97.4138 27.9223 0007565 53.2867 306.9070 15.35206663102111 Tevel-6 1 50999U 22002R 23320.66267234 .00029653 00000-0 86738-3 0 9994 2 50999 97.4136 27.8461 0007575 53.2070 306.9868 15.35189413102107 Tevel-1 1 51013U 22002AF 23320.76863889 .00027080 00000-0 82719-3 0 9998 2 51013 97.4134 27.2711 0006584 60.3689 299.8209 15.33845043102070 NO-116 1 51031U 22002AZ 23320.18532880 .00112195 00000-0 17387-2 0 9998 2 51031 97.4240 32.6583 0004216 23.1422 337.0020 15.53619438102308 IRIS-A 1 51044U 22002BN 23320.16746767 .00010616 00000-0 44962-3 0 9996 2 51044 97.4163 23.5136 0008667 72.6812 287.5372 15.23311030101767 Tevel-7 1 51062U 22002CG 23320.77763186 .00026497 00000-0 80877-3 0 9996 2 51062 97.4154 27.4118 0006724 59.2730 300.9174 15.33872896102070 Tevel-4 1 51063U 22002CH 23320.79089991 .00027298 00000-0 83577-3 0 9994 2 51063 97.4153 27.3879 0006657 59.4165 300.7734 15.33769295102070 Tevel-2 1 51069U 22002CP 23320.75429162 .00027458 00000-0 83643-3 0 9996 2 51069 97.4140 27.3107 0006708 60.4408 299.7503 15.33928740102078 DELFI-PQ 1 51074U 22002CU 23320.21713269 .00155079 00000-0 16811-2 0 9990 2 51074 97.4363 36.5530 0003144 49.4254 310.7278 15.63024086102481 SO-115 1 51080U 22002DA 23320.44800946 .00038610 00000-0 97365-3 0 9996 2 51080 97.4430 32.4104 0008564 81.0478 279.1737 15.39729186102222 SO-114 1 51081U 22002DB 23320.40980922 .00040444 00000-0 10051-2 0 9990 2 51081 97.4422 32.3880 0008568 80.2092 280.0121 15.40165559102229 OreSat0 1 52017U 22026K 23320.75439145 .00022641 00000-0 72446-3 0 9996 2 52017 97.5092 324.3348 0015775 265.6290 94.3149 15.32300640 92848 Planetum 1 1 52738U 22057G 23320.26702114 .00018953 00000-0 73204-3 0 9999 2 52738 97.5517 76.8643 0006536 174.1084 186.0232 15.26289015 81808 Foresail-1 1 52766U 22057AL 23320.27950251 .00012879 00000-0 54178-3 0 9998 2 52766 97.5651 77.6359 0011544 157.2438 202.9312 15.23467777 81808 SNUGLITE 2 1 52899U 22065F 23320.34365212 .00001452 00000-0 31299-3 0 9993 2 52899 98.0907 101.2052 0008956 100.5050 259.7159 14.59853238 73059 CTIM 1 52950U 22074G 23320.71466478 .00580838 00000-0 20491-2 0 9999 2 52950 44.9955 210.6627 0016907 208.2089 151.7902 15.86725709 77352 IO-117 1 53106U 22080B 23320.11518823 -.00000003 00000-0 00000-0 0 9990 2 53106 70.1429 266.9072 0008228 154.5968 205.5097 6.42557250 31514 SelfieSat 1 53951U 22057BC 23320.31716928 .00026769 00000-0 92250-3 0 9997 2 53951 97.5562 78.2186 0007510 170.3526 189.7859 15.29964205 81872 FO-118 1 54684U 22167C 23320.79962892 .00014987 00000-0 71784-3 0 9996 2 54684 97.5822 98.0036 0012430 166.7195 193.4369 15.18972422 51803 SSS-2B 1 56184U 23054G 23320.80042136 .00016323 00000-0 59776-3 0 9994 2 56184 97.3901 213.9850 0007727 205.8788 154.2066 15.28074805 33431 CIRBE 1 56188U 23054L 23320.28271853 .00024681 00000-0 84163-3 0 9994 2 56188 97.3851 213.6263 0006824 192.1216 167.9862 15.30326376 33379 INSPIRE-Sat 7 1 56211U 23054AK 23320.29581352 .00022925 00000-0 73504-3 0 9996 2 56211 97.3877 214.2825 0011168 180.0796 180.0446 15.32291876 33418 RoseyCubesat 1 1 56212U 23054AL 23320.76613089 .00024721 00000-0 77252-3 0 9992 2 56212 97.3882 214.8905 0011356 177.2369 182.8938 15.33096055 33490 NEUDOSE 1 56315U 98067VG 23320.30807785 .00591538 16477-3 11616-2 0 9994 2 56315 51.6224 273.3518 0005350 107.9287 252.2306 15.99500590 32220 SO-120 1 56992U 23084BU 23320.27379870 .00015229 00000-0 77829-3 0 9996 2 56992 97.5192 74.7024 0016813 54.6355 305.6446 15.16641185 23659 MRC-100 1 56993U 23084BV 23320.26261591 .00016536 00000-0 83548-3 0 9993 2 56993 97.5202 74.7302 0016725 54.1750 306.1034 15.17025916 23666 UmKA 1 (RS40S) 1 57172U 23091G 23320.79317237 .00003406 00000-0 24499-3 0 9990 2 57172 97.6454 10.0794 0019305 124.6982 235.6067 15.04765930 21372 CubeBel-2 (EU11S) 1 57175U 23091K 23320.77003840 .00005432 00000-0 39060-3 0 9994 2 57175 97.6433 9.9471 0017052 137.3941 222.8611 15.04547591 21367 /EX
